Temperature
22 21 20 20 19 19 19 18 18 18 18 18 18 18 18 18 18 18 18 18 18 18 18 18 18 18 17 17 17 17 17 17 17 17 17 17 17 17 17 17 17 17 17
22 21 21 20 20 19 19 19 19 18 18 18 18 18 18 18 18 18 18 18 18 18 18 18 18 17 18 17 17 17 17 17 17 18 18 18 18 17 17 17 17 17 17
23 22 21 21 20 19 19 19 19 19 19 19 18 18 18 18 18 18 18 18 18 18 18 18 18 18 17 18 17 17 17 17 17 18 18 19 19 18 17 17 17 17 17
24 23 22 21 20 20 20 19 19 19 19 19 18 18 18 18 18 18 18 18 18 18 18 18 18 18 17 18 17 17 17 17 18 17 18 18 18 18 18 17 17 17 16
24 23 22 21 21 20 20 19 19 19 19 19 19 18 18 18 18 18 18 18 18 18 17 18 18 17 18 18 18 18 17 17 17 18 18 18 18 18 18 18 17 17 17
24 23 22 22 21 20 20 20 19 20 19 19 19 19 18 18 18 18 18 18 18 18 17 17 17 17 18 17 17 18 17 17 17 18 18 18 18 18 18 18 17 17 17
24 23 23 22 21 21 20 20 20 20 19 19 19 19 19 18 18 18 18 18 18 18 18 17 17 17 18 18 18 18 17 17 17 17 17 18 18 18 18 18 18 17 17
24 24 23 22 21 21 20 20 20 20 20 20 19 19 19 19 18 18 18 18 18 18 18 17 17 17 17 17 18 17 17 17 17 17 17 17 17 17 17 17 17 18 18
24 24 23 22 21 21 20 20 20 20 20 20 19 19 19 19 18 18 18 18 18 18 18 17 17 17 17 17 17 17 17 17 17 17 17 17 17 17 17 17 17 17 18
25 24 23 22 22 21 20 20 20 20 20 19 19 19 19 19 19 18 18 18 18 18 18 17 17 17 17 17 17 17 17 17 17 17 17 17 17 17 17 17 17 17 17
25 24 23 22 22 21 21 20 20 20 20 19 19 19 19 19 18 18 18 18 18 18 18 17 17 17 17 17 17 17 17 17 17 17 17 17 17 17 17 16 16 16 16
25 24 23 22 22 21 21 20 20 20 20 19 19 19 19 19 18 18 18 18 18 18 18 17 17 17 17 17 17 17 17 17 16 16 16 16 16 17 16 16 16 16 16
24 23 23 22 21 21 21 20 20 20 20 19 19 19 19 19 18 18 18 18 18 18 17 17 17 17 17 17 17 17 17 16 16 16 16 16 16 16 16 16 16 16 16
23 23 22 21 21 20 20 20 20 20 20 19 19 19 19 18 18 18 18 18 18 18 17 17 17 17 17 17 17 16 16 16 16 16 16 16 16 16 16 16 16 16 16
23 22 22 21 21 20 20 20 20 19 19 19 19 19 18 18 18 18 18 18 17 17 17 17 17 17 17 16 16 16 16 16 16 16 16 16 16 16 16 16 16 15 15
23 22 21 21 20 20 20 20 20 19 19 19 19 19 18 18 18 18 18 17 17 17 17 17 17 17 17 17 17 16 16 16 16 16 16 16 16 16 16 16 16 16 15
22 22 21 21 20 20 20 20 20 19 19 19 19 18 18 18 18 18 17 17 17 17 17 17 17 17 17 17 17 17 16 16 16 16 16 16 16 16 16 16 16 15 15
21 21 21 21 20 20 20 20 19 19 19 19 18 18 18 17 17 17 17 17 17 17 17 17 17 17 17 17 17 17 16 16 16 16 15 15 15 15 15 15 15 15 15
20 20 20 20 20 20 20 19 19 19 19 18 18 18 18 17 17 17 17 17 17 17 16 16 16 16 17 17 17 17 16 16 16 16 15 15 15 15 15 15 15 15 15
20 20 19 19 19 19 19 19 19 18 18 18 18 18 18 17 17 17 17 16 16 16 16 16 16 16 16 16 16 16 16 16 15 16 15 16 15 15 15 15 15 14 15
19 19 19 19 19 19 19 18 18 18 18 18 18 18 17 17 17 16 16 16 16 16 15 16 16 15 16 16 16 16 15 15 15 15 15 15 15 15 15 15 15 15 15
19 18 18 18 18 18 18 18 18 18 18 18 18 17 17 17 17 16 16 16 15 15 16 16 16 16 16 16 16 16 16 15 15 15 15 15 15 15 15 15 15 15 14
18 18 18 18 18 18 17 17 17 17 17 17 17 17 17 17 16 16 16 16 16 16 16 16 16 16 16 16 16 16 16 16 15 15 15 15 15 15 15 14 14 14 14
17 17 17 17 17 17 17 17 17 17 17 17 17 17 17 16 16 16 16 16 16 16 16 16 16 16 16 15 15 15 15 15 15 15 15 15 15 14 14 14 14 14 13
17 17 16 16 16 16 16 16 16 17 16 16 16 16 16 16 16 16 16 16 16 16 16 16 16 16 16 15 15 15 15 15 14 14 14 14 14 14 14 14 14 13 13
16 16 16 16 16 16 16 16 16 16 16 16 16 16 16 16 16 16 16 16 16 16 16 15 15 15 15 15 15 15 15 15 14 14 14 14 14 14 14 14 14 13 13
Wind_Speed
6 6 6 5 5 4 4 3 3 2 2 1 1 1 2 1 2 2 2 2 2 2 2 2 2 1 2 2 2 2 3 2 2 2 2 2 2 2 1 1 1 2 2
7 7 7 6 6 5 4 4 4 3 2 2 1 1 0 1 2 2 2 2 3 3 3 2 2 2 2 2 2 2 2 2 2 2 2 2 3 2 2 2 1 1 2
8 9 8 7 7 6 5 4 4 4 3 2 2 2 2 1 2 2 2 2 3 3 2 2 1 1 2 2 2 2 2 2 2 1 1 1 1 2 3 2 2 1 1
8 8 9 8 7 7 6 5 4 4 4 4 3 2 2 1 1 1 2 2 2 2 3 2 2 2 1 2 3 2 2 2 2 1 1 2 1 1 1 2 2 2 1
9 9 9 8 8 7 6 6 5 5 4 4 4 3 3 2 1 1 2 2 3 2 3 3 2 2 2 2 1 2 2 2 2 1 1 1 1 2 1 1 1 2 1
9 8 8 8 8 7 7 6 6 6 5 5 5 5 4 3 2 2 2 2 2 3 3 3 2 2 2 2 2 2 3 2 1 1 1 1 1 1 1 1 2 2 1
8 8 9 9 8 8 7 7 7 6 6 6 5 5 5 5 4 3 3 2 2 2 2 2 2 2 2 2 2 2 2 2 2 2 1 1 0 0 0 1 1 1 2
8 8 9 9 8 8 8 7 7 6 6 6 6 5 5 4 4 4 3 3 2 2 1 2 2 2 2 2 2 2 2 2 2 2 1 1 0 0 1 1 1 2 2
7 8 9 9 8 8 8 7 7 6 5 5 5 5 5 4 3 3 4 3 2 2 2 2 2 2 2 2 2 1 2 2 2 2 2 2 1 1 1 1 2 2 2
7 7 8 8 8 8 8 7 7 6 5 5 5 5 5 4 4 3 3 2 2 2 2 2 2 2 2 2 2 2 2 2 1 1 1 1 1 1 2 2 2 2 3
6 7 7 7 8 8 7 7 7 6 5 5 5 4 4 4 4 4 4 3 3 3 3 3 2 2 2 2 2 2 3 3 2 2 2 2 1 2 2 2 2 2 2
3 5 6 7 7 7 7 7 7 6 6 5 5 5 5 4 4 4 4 3 3 3 3 3 3 3 3 3 3 3 3 3 3 2 2 2 2 2 2 2 2 1 2
2 4 5 6 6 7 6 7 7 6 6 6 6 5 5 5 4 4 4 3 3 3 3 3 3 3 3 3 3 3 3 3 3 3 3 3 2 3 2 3 2 2 2
2 3 4 5 5 5 6 6 6 6 6 6 6 5 5 5 5 4 4 4 3 3 3 3 3 3 3 3 4 4 3 3 3 3 3 3 3 3 3 3 3 2 2
1 2 3 4 4 5 6 6 6 6 6 6 6 5 5 5 5 5 4 4 4 4 4 3 3 4 4 3 3 4 4 4 4 3 3 3 1 1 2 2 2 3 3
1 2 3 3 4 5 6 6 6 7 6 6 6 5 5 5 5 4 4 4 4 3 4 4 4 4 3 3 1 3 3 4 4 4 4 4 4 3 3 2 2 3 4
2 2 3 3 4 5 5 6 7 7 7 6 6 6 6 5 5 5 4 4 4 4 4 4 4 3 2 3 3 3 4 4 4 4 4 4 3 4 4 5 6 4 4
3 2 2 3 3 4 5 6 7 7 7 7 7 7 6 6 6 5 5 5 4 4 4 4 4 3 3 5 5 5 6 5 4 5 5 5 4 4 4 5 4 5 5
3 3 3 2 2 3 5 6 6 7 7 8 8 7 7 7 6 6 5 5 4 4 4 4 4 4 4 6 6 6 5 5 6 6 5 6 6 3 4 6 5 5 5
3 3 2 2 2 3 4 5 6 7 7 7 8 8 8 7 7 6 5 5 4 5 5 5 5 5 5 6 7 7 6 5 6 6 6 5 6 4 5 6 6 7 6
4 3 2 1 2 2 4 5 5 6 6 6 7 8 8 8 7 6 5 5 5 5 5 5 5 6 5 6 7 7 6 6 6 6 6 5 7 6 7 8 7 6 6
4 3 2 2 1 2 3 4 4 4 5 6 7 7 8 7 7 6 6 6 6 6 6 6 6 5 5 5 6 7 7 7 6 6 5 3 6 7 8 7 6 5 7
4 3 2 2 2 2 3 4 4 4 5 6 7 7 7 7 7 7 7 7 7 7 6 6 6 5 4 5 7 8 8 8 7 6 3 2 4 7 7 9 8 7 7
3 3 3 3 3 3 3 3 3 3 5 6 6 7 7 7 7 7 7 7 7 7 6 6 6 6 5 5 4 5 6 7 7 6 4 6 7 8 7 6 7 7 7
4 3 3 3 3 3 3 3 2 3 4 5 6 6 7 7 7 7 6 7 6 6 6 6 6 6 6 4 4 5 5 5 4 4 5 5 5 6 6 6 6 7 7
4 5 4 4 3 3 3 3 2 2 3 4 5 5 5 5 6 6 6 4 6 5 6 6 7 6 4 2 4 5 5 3 3 5 6 6 6 7 6 7 7 7 7
Wind_Direction
162 164 168 168 164 164 169 175 185 165 164 159 168 153 136 135 128 125 119 141 142 133 138 107 114 119 119 125 140 145 150 144 138 137 127 129 120 113 129 134 129 126 129
173 173 179 178 179 176 180 181 191 188 185 162 158 149 111 129 120 113 123 137 141 144 151 148 156 134 150 159 153 156 163 155 159 176 176 156 147 138 118 143 153 139 142
185 182 185 187 186 186 189 191 191 189 190 178 169 151 153 161 136 146 137 138 148 161 166 164 171 170 190 158 166 176 176 171 171 212 273 255 123 136 132 132 137 138 155
192 189 187 190 191 191 189 191 189 190 186 184 190 192 174 159 140 153 130 137 145 163 170 172 183 207 196 171 199 169 194 207 190 174 279 324 34 244 143 140 136 149 168
192 192 191 190 193 191 189 185 186 189 187 188 185 200 206 198 184 155 143 163 155 168 180 181 193 208 213 195 210 188 222 226 245 218 207 189 194 234 212 151 154 154 151
192 191 190 188 191 190 190 187 185 189 189 193 196 202 202 205 205 190 174 185 169 164 170 190 203 218 224 211 211 209 206 225 260 277 240 226 224 216 164 181 198 153 131
192 190 189 188 190 191 191 190 188 191 191 194 200 203 204 203 203 211 192 200 185 169 173 196 206 217 221 222 213 211 213 212 215 244 253 269 305 314 246 214 204 188 161
186 189 189 189 191 190 189 190 189 195 195 195 195 200 203 208 203 198 208 201 211 182 160 189 194 200 207 209 194 202 195 194 218 233 268 263 283 233 230 245 223 225 195
180 183 184 187 188 188 186 188 188 192 196 196 192 195 199 209 201 187 198 202 201 185 182 201 191 187 192 198 201 177 184 183 207 206 202 227 196 224 254 253 259 273 245
176 179 181 185 187 186 183 186 188 193 197 196 199 193 191 196 191 193 190 188 188 193 195 201 190 182 187 188 192 176 163 182 191 223 237 238 201 217 241 240 253 276 279
174 174 176 182 184 184 183 184 187 192 194 197 197 198 190 189 187 186 185 180 183 186 194 190 184 192 197 195 195 192 175 182 184 209 202 214 240 236 226 232 242 251 263
160 167 170 176 182 184 185 185 187 193 195 190 188 191 186 186 186 182 174 174 177 181 178 182 186 204 203 200 197 200 189 188 190 206 206 208 203 209 237 235 238 240 249
143 159 165 172 180 185 186 187 188 191 190 183 182 180 182 182 185 179 173 170 172 178 180 184 188 203 211 209 202 202 201 195 196 202 208 208 207 217 220 238 233 232 227
142 153 162 169 176 181 184 187 190 188 186 182 180 176 181 187 185 177 172 173 178 181 185 191 193 198 207 212 211 205 200 200 202 205 211 209 210 218 230 228 229 234 235
176 175 174 170 176 182 185 188 186 184 180 178 181 180 181 181 180 177 176 176 184 192 193 200 204 202 206 213 212 210 198 199 208 211 214 213 183 6 283 265 236 227 236
241 216 194 185 187 193 193 188 187 183 180 183 183 177 177 178 179 176 175 180 192 204 201 210 211 215 219 119 162 238 206 204 209 214 216 211 197 195 203 279 298 279 249
300 248 221 208 199 200 198 192 189 185 182 185 185 181 183 186 187 185 180 188 199 205 204 208 213 222 193 149 182 234 225 222 220 217 224 234 214 208 223 215 216 235 253
324 305 255 234 209 199 198 197 191 187 186 186 185 186 187 190 191 191 195 197 202 209 212 214 219 223 205 178 196 223 223 229 228 229 229 234 239 236 241 239 232 233 230
321 313 276 255 215 200 194 191 191 191 192 192 190 191 194 196 199 198 202 209 210 215 216 217 220 224 214 192 198 222 223 223 229 233 235 239 237 218 238 241 242 247 245
336 322 294 252 216 203 192 196 195 198 201 200 197 194 197 200 205 204 204 210 216 221 223 219 224 227 227 194 196 220 234 233 233 226 227 227 238 221 219 237 242 243 246
330 316 289 247 232 220 204 209 208 208 207 202 200 197 198 202 207 206 205 209 218 225 230 227 229 230 229 201 198 216 241 245 244 238 231 219 186 210 223 243 248 252 258
327 315 287 269 250 229 218 218 222 224 210 202 203 202 202 208 203 203 206 211 218 221 226 227 233 230 220 210 198 208 235 270 255 254 253 226 174 206 221 232 245 249 253
320 311 294 280 262 239 235 236 236 227 214 204 207 206 204 208 209 207 208 213 217 228 231 232 236 234 226 202 188 206 221 239 251 261 290 284 208 214 223 222 226 230 241
308 308 297 284 282 270 261 256 247 233 216 212 214 213 209 208 206 215 218 221 224 228 232 235 239 239 228 230 215 217 217 218 236 253 234 217 222 233 241 225 220 233 245
303 297 291 284 282 287 287 276 253 237 222 219 220 219 215 211 209 216 224 228 228 234 240 245 244 242 241 229 213 234 238 236 230 242 243 236 232 233 234 236 235 236 236
282 282 281 276 275 274 272 280 264 243 231 225 228 229 225 216 219 217 220 228 227 205 214 241 256 251 257 217 209 234 251 252 224 239 246 244 241 241 241 238 234 234 237
Height
1531 1532 1533 1534 1534 1534 1534 1534 1534 1534 1534 1534 1535 1535 1535 1536 1536 1537 1536 1537 1537 1538 1538 1539 1539 1540 1541 1541 1542 1543 1543 1544 1545 1546 1546 1546 1546 1546 1546 1546 1547 1547 1547
1530 1531 1532 1533 1534 1534 1534 1534 1534 1534 1535 1535 1535 1535 1536 1537 1537 1537 1537 1537 1537 1538 1539 1539 1540 1540 1541 1541 1542 1542 1543 1544 1545 1546 1546 1546 1547 1546 1546 1546 1546 1546 1547
1528 1530 1531 1532 1533 1533 1534 1534 1534 1534 1535 1535 1536 1536 1536 1537 1537 1537 1537 1537 1538 1538 1539 1539 1540 1540 1541 1541 1542 1542 1543 1544 1545 1545 1546 1546 1545 1546 1546 1545 1546 1545 1546
1525 1527 1529 1531 1532 1533 1533 1533 1534 1534 1534 1535 1536 1536 1537 1537 1537 1537 1538 1538 1538 1538 1539 1539 1539 1540 1541 1541 1542 1542 1543 1543 1544 1544 1544 1545 1545 1545 1546 1546 1545 1545 1545
1522 1525 1527 1528 1530 1531 1532 1532 1533 1533 1534 1535 1535 1536 1536 1537 1538 1537 1537 1538 1538 1538 1539 1539 1539 1539 1540 1540 1541 1541 1542 1543 1544 1544 1544 1544 1544 1544 1545 1545 1545 1545 1545
1520 1522 1525 1527 1528 1530 1531 1531 1531 1532 1533 1534 1534 1535 1536 1536 1537 1537 1537 1538 1538 1538 1539 1539 1539 1539 1540 1540 1540 1541 1541 1542 1542 1543 1543 1544 1544 1544 1544 1544 1544 1544 1544
1517 1520 1522 1524 1526 1528 1529 1530 1530 1531 1532 1532 1533 1534 1534 1535 1535 1536 1536 1537 1538 1538 1538 1538 1538 1538 1539 1539 1539 1539 1540 1541 1541 1541 1542 1543 1543 1543 1543 1543 1543 1543 1543
1515 1518 1520 1522 1524 1526 1527 1528 1529 1529 1530 1531 1531 1532 1533 1534 1535 1535 1536 1536 1537 1537 1537 1537 1537 1538 1538 1538 1538 1539 1539 1539 1540 1541 1541 1541 1542 1541 1542 1542 1542 1542 1543
1513 1516 1518 1520 1522 1524 1525 1526 1527 1528 1529 1529 1530 1531 1531 1532 1533 1533 1534 1535 1535 1536 1536 1536 1536 1537 1537 1537 1537 1538 1538 1538 1539 1540 1539 1540 1540 1540 1540 1540 1541 1542 1541
1512 1514 1516 1518 1520 1522 1523 1525 1526 1526 1527 1528 1529 1530 1530 1530 1531 1532 1533 1534 1534 1534 1534 1535 1535 1536 1536 1536 1536 1537 1537 1537 1537 1538 1538 1538 1539 1539 1539 1539 1539 1540 1540
1510 1512 1514 1516 1519 1520 1522 1523 1524 1525 1525 1526 1527 1528 1528 1529 1530 1531 1531 1532 1532 1533 1533 1533 1534 1534 1535 1535 1535 1536 1536 1536 1536 1536 1537 1536 1536 1537 1538 1538 1538 1538 1539
1509 1511 1513 1515 1517 1518 1520 1521 1522 1523 1524 1524 1525 1526 1526 1527 1528 1529 1530 1530 1531 1531 1531 1532 1533 1533 1534 1534 1534 1534 1535 1535 1535 1535 1535 1535 1535 1535 1536 1536 1536 1536 1536
1509 1510 1512 1513 1515 1516 1518 1519 1520 1521 1522 1523 1523 1524 1525 1526 1526 1528 1528 1529 1529 1530 1530 1531 1531 1532 1532 1532 1533 1533 1533 1533 1533 1533 1533 1534 1534 1534 1534 1534 1535 1535 1535
1507 1509 1510 1511 1512 1514 1515 1516 1518 1519 1520 1520 1521 1522 1523 1524 1525 1526 1526 1527 1527 1528 1529 1529 1530 1530 1530 1531 1531 1532 1532 1532 1532 1532 1532 1532 1532 1532 1532 1532 1532 1533 1533
1507 1507 1508 1510 1511 1512 1513 1514 1515 1516 1517 1518 1519 1519 1520 1521 1522 1523 1524 1525 1526 1527 1527 1528 1528 1529 1529 1530 1530 1530 1530 1530 1530 1530 1530 1530 1530 1530 1530 1531 1531 1531 1531
1505 1506 1507 1508 1508 1509 1510 1511 1512 1514 1515 1516 1517 1517 1518 1519 1520 1521 1522 1523 1524 1525 1526 1526 1527 1528 1528 1528 1528 1528 1529 1528 1528 1528 1528 1529 1528 1528 1528 1528 1528 1528 1528
1504 1505 1505 1505 1506 1507 1508 1509 1510 1511 1512 1513 1514 1515 1516 1517 1518 1519 1520 1521 1522 1523 1523 1524 1525 1525 1526 1526 1526 1526 1526 1527 1526 1526 1526 1528 1527 1526 1526 1525 1525 1525 1525
1503 1503 1503 1504 1504 1505 1505 1507 1508 1509 1510 1511 1512 1513 1514 1515 1516 1517 1518 1519 1519 1520 1521 1522 1522 1523 1523 1523 1524 1524 1524 1524 1524 1524 1524 1524 1524 1524 1523 1523 1523 1523 1523
1501 1501 1501 1502 1502 1502 1503 1504 1505 1506 1507 1508 1509 1510 1511 1512 1513 1514 1515 1516 1517 1518 1518 1519 1519 1520 1520 1521 1521 1521 1522 1522 1521 1521 1521 1521 1521 1521 1521 1521 1520 1520 1520
1500 1499 1499 1499 1500 1500 1501 1501 1502 1503 1504 1506 1507 1507 1508 1509 1510 1511 1512 1514 1514 1515 1516 1516 1516 1517 1517 1517 1517 1518 1519 1519 1519 1518 1518 1517 1517 1517 1517 1518 1518 1517 1517
1498 1497 1497 1497 1497 1498 1498 1499 1500 1500 1501 1502 1503 1504 1505 1506 1507 1508 1509 1510 1512 1513 1513 1513 1513 1513 1514 1514 1514 1514 1515 1516 1516 1516 1515 1515 1513 1513 1514 1514 1514 1514 1514
1496 1496 1495 1495 1495 1495 1495 1496 1496 1497 1498 1499 1500 1501 1502 1504 1505 1505 1506 1507 1508 1509 1509 1510 1510 1510 1510 1510 1510 1511 1511 1511 1512 1512 1512 1511 1510 1510 1510 1510 1510 1510 1510
1494 1494 1493 1493 1493 1493 1493 1493 1493 1494 1495 1496 1497 1498 1499 1500 1501 1502 1503 1504 1505 1506 1506 1507 1507 1507 1507 1507 1506 1507 1507 1507 1507 1507 1507 1507 1506 1506 1506 1506 1506 1506 1506
1493 1492 1491 1491 1491 1491 1491 1491 1491 1491 1492 1493 1493 1494 1495 1496 1497 1498 1499 1500 1501 1502 1502 1503 1503 1503 1503 1503 1503 1503 1502 1502 1502 1502 1502 1502 1502 1502 1502 1502 1502 1501 1502
1491 1490 1489 1489 1489 1488 1488 1488 1488 1488 1489 1490 1490 1491 1492 1492 1493 1494 1494 1495 1496 1497 1498 1499 1499 1499 1499 1499 1499 1499 1499 1498 1498 1498 1498 1498 1498 1498 1497 1498 1498 1497 1497
1489 1488 1487 1487 1486 1486 1486 1486 1486 1486 1486 1487 1487 1488 1489 1489 1490 1490 1490 1490 1491 1491 1492 1493 1493 1494 1494 1494 1494 1495 1495 1494 1494 1494 1494 1494 1494 1493 1493 1493 1493 1492 1492